C/2017 T2 ( PanSTARRS )

Japanese version
Home page
Updated on September 24, 2019

---------------------------------------------------------------------

* Profile

Discovery Date October 2, 2017
Magnitude 19.9 mag
Discoverer Pan-STARRS 1 telescope (Haleakala)

* Pictures

* Orbital Elements

Epoch 2020 Apr. 21.0 TT = JDT 2458960.5
T 2020 May 4.95157 TT                                   Williams
q   1.6151153            (2000.0)            P               Q
z  +0.0002252      Peri.   92.99391     -0.50995328     -0.40635389
 +/-0.0000008      Node    64.37787     -0.16277374     -0.81987939
e   0.9996364      Incl.   57.23070     +0.84466109     -0.40332903
From 1097 observations 2017 Sept. 15-2019 Aug. 24, mean residual 0".4.

* Finding Charts

* Magnitudes Graph

        m1 = 5.0 + 5 log d + 9.5 log r

---------------------------------------------------------------------

The orbital elements are published on M.P.E.C. 2019-Q135.
The charts are made with StellaNavigator Ver.10 (AstroArts).
The magnitudes graphs are made with Comet for Windows.

---------------------------------------------------------------------

Copyright(C) Seiichi Yoshida (comet@aerith.net). All rights reserved.